Simultaneous Nadir Overpasses (SNOs) Predictions

Prediction of SNOs between GOES-17 and METOP-B Satellite Orbit:

Table of predicted SNOs for the next 14.0 days since TLE Epoch: 11/16/2024
Index Date Time (GOES-17) GOES-17 Lat,Lon METOP-B Lat,Lon Distance(km) Time Diff (sec)
1 11/16/2024 16:04:25 0.01,-104.72 -0.62,-101.76 336.66 80
2 11/18/2024 04:23:17 -0.00,-104.65 -0.38,-106.34 192.86 80
3 11/19/2024 03:59:53 0.00,-104.64 0.76,-101.34 377.16 80
4 11/20/2024 16:18:36 -0.01,-104.70 0.24,-105.89 134.31 80
5 11/21/2024 16:00:31 -0.01,-104.70 -0.86,-100.87 436.53 80
6 11/23/2024 04:19:22 0.01,-104.64 -0.18,-105.44 91.59 80
7 11/24/2024 03:55:56 0.01,-104.64 0.92,-100.43 479.14 80
8 11/25/2024 16:14:40 -0.01,-104.70 0.06,-104.98 31.79 80
9 11/28/2024 04:12:45 0.01,-104.65 0.04,-104.54 12.25 80
10 11/29/2024 16:31:28 -0.01,-104.70 0.99,-109.08 499.68 80
